This demonstration page uses our WeatherBlox Daily Observations layout. Learn more.

Left ArrowRight Arrow

44.8408, -93.29828

Hourly Observations for April 30, 2019

Temp ( °F °C ) Dew Point ( °F °C ) Humidity (%) Winds ( mph kmh ) Pressure ( in mb ) Visibility ( mi km ) Precip ( " mm )
12:53 am 00:53 Cloudy 45 7.2 37 2.8 74 74 NNE 12 19 30.20 1023 10 16 0.00 0.00
1:53 am 01:53 Cloudy 43 6.1 36 2.2 76 76 NNE 9 15 30.21 1023 10 16 0.00 0.00
2:53 am 02:53 Cloudy 41 5 36 2.2 82 82 NNE 12 19 30.21 1023 10 16 0.00 0.00
3:53 am 03:53 Cloudy 42 5.6 33 0.6 71 71 NE 7 11 30.23 1024 10 16 0.00 0.00
4:53 am 04:53 Cloudy 41 5 31 -0.6 67 67 ENE 10 17 30.24 1024 10 16 0.00 0.00
5:53 am 05:53 Cloudy 41 5 30 -1.1 65 65 NE 8 13 30.25 1024 10 16 0.00 0.00
6:01 am 06:01 Cloudy 41 5 31 -0.6 67 67 VRB 7 11 30.26 1025 10 16 0.00 0.00
6:26 am 06:26 Cloudy 40 4.4 31 -0.6 70 70 NE 8 13 30.25 1024 10 16 0.00 0.00
6:53 am 06:53 Cloudy 40 4.4 31 -0.6 70 70 NE 9 15 30.24 1024 10 16 0.00 0.00
7:53 am 07:53 Cloudy 39 3.9 31 -0.6 73 73 NNE 10 17 30.26 1025 10 16 0.00 0.00
8:53 am 08:53 Cloudy 39 3.9 31 -0.6 73 73 NE 9 15 30.24 1024 10 16 0.00 0.00
9:53 am 09:53 Cloudy 40 4.4 32 0 73 73 NE 8 13 30.24 1024 10 16 0.00 0.00
10:53 am 10:53 Cloudy with Light Rain 41 5 34 1.1 76 76 ENE 8 13 30.25 1024 8 13 0.02 0.51
11:29 am 11:29 Cloudy with Light Rain 41 5 36 2.2 82 82 ENE 9 15 30.26 1025 8 13 0.01 0.25
11:37 am 11:37 Cloudy with Light Rain 42 5.6 36 2.2 79 79 ENE 10 17 30.25 1024 7 11 0.01 0.25
11:44 am 11:44 Cloudy with Light Rain 41 5 36 2.2 82 82 ENE 9 15 30.25 1024 7 11 0.02 0.51
11:53 am 11:53 Cloudy with Light Rain 42 5.6 37 2.8 82 82 ENE 10 17 30.23 1024 9 14 0.02 0.51
12:20 pm 12:20 Cloudy with Light Rain 43 6.1 39 3.9 86 86 ENE 10 17 30.23 1024 9 14 0.01 0.25
12:26 pm 12:26 Cloudy with Light Rain 43 6.1 39 3.9 86 86 E 10 17 30.23 1024 9 14 0.02 0.51
12:53 pm 12:53 Cloudy with Light Rain 43 6.1 39 3.9 86 86 ENE 10 17 30.21 1023 9 14 0.02 0.51
1:45 pm 13:45 Cloudy with Light Rain 44 6.7 40 4.4 85 85 E 9 15 30.23 1024 7 11 0.02 0.51
1:53 pm 13:53 Cloudy with Light Rain 44 6.7 40 4.4 85 85 ENE 7 11 30.22 1024 6 10 0.02 0.51
2:53 pm 14:53 Cloudy with Light Rain 45 7.2 41 5 86 86 ESE 15 24 30.21 1023 6 10 0.07 1.78
3:53 pm 15:53 Cloudy with Light Rain 45 7.2 41 5 86 86 E 13 20 30.19 1022 6 10 0.01 0.25
4:53 pm 16:53 Cloudy with Light Rain 44 6.7 40 4.4 85 85 E 13 20 30.18 1022 7 11 0.00 0.03
5:53 pm 17:53 Cloudy 45 7.2 40 4.4 83 83 E 12 19 30.16 1022 8 13 0.00 0.03
6:16 pm 18:16 Cloudy with Light Rain 45 7.2 40 4.4 83 83 ENE 14 22 30.16 1021 7 11 0.00 0.03
6:53 pm 18:53 Cloudy 44 6.7 40 4.4 85 85 E 15 24 30.16 1021 9 14 0.01 0.25
7:05 pm 19:05 Cloudy 44 6.7 40 4.4 85 85 E 14 22 30.17 1022 10 16 0.00 0.00
7:13 pm 19:13 Cloudy 44 6.7 39 3.9 83 83 E 14 22 30.16 1021 10 16 0.00 0.00
7:27 pm 19:27 Cloudy 44 6.7 39 3.9 83 83 E 13 20 30.16 1021 10 16 0.00 0.00
7:41 pm 19:41 Cloudy 43 6.1 39 3.9 86 86 E 15 24 30.16 1021 10 16 0.00 0.00
7:53 pm 19:53 Cloudy with Drizzle 43 6.1 39 3.9 86 86 E 16 26 30.15 1021 10 16 0.00 0.03
8:18 pm 20:18 Cloudy 43 6.1 38 3.3 82 82 E 16 26 30.15 1021 10 16 0.00 0.03
8:27 pm 20:27 Cloudy 42 5.6 38 3.3 85 85 E 15 24 30.16 1021 10 16 0.00 0.03
8:53 pm 20:53 Cloudy 42 5.6 38 3.3 85 85 E 15 24 30.15 1021 10 16 0.00 0.03
9:24 pm 21:24 Cloudy with Light Rain 42 5.6 37 2.8 82 82 E 14 22 30.14 1021 10 16 0.00 0.03
9:53 pm 21:53 Cloudy with Drizzle 41 5 37 2.8 86 86 E 14 22 30.13 1020 10 16 0.00 0.03
10:41 pm 22:41 Cloudy with Drizzle 41 5 36 2.2 82 82 E 13 20 30.13 1020 10 16 0.00 0.03
10:53 pm 22:53 Cloudy 41 5 36 2.2 82 82 E 10 17 30.12 1020 10 16 0.00 0.03
11:41 pm 23:41 Cloudy with Light Rain 41 5 37 2.8 86 86 ENE 9 15 30.12 1020 4 6 0.02 0.51
11:53 pm 23:53 Cloudy with Light Rain 40 4.4 37 2.8 89 89 ENE 8 13 30.10 1019 4 6 0.03 0.76

Powered by AerisWeather